Selinsgrove, PA

8:09 PM EST on November 13, 2019 (GMT -0500)
Penn Valley

Weather History for KSEG - October, 2019

Change the Weather History Date:

Friday, October 18, 2019

  Actual Average (WUND) Record (WUND)
Temperature  
Mean Temperature 48 °F -  
Max Temperature 60 °F - - (-1)
Min Temperature 36 °F - - (-1)
Degree Days  
Heating Degree Days 17    
Moisture  
Dew Point 36 °F    
Average Humidity 61    
Maximum Humidity 97    
Minimum Humidity 39    
Precipitation  
Precipitation 0.00 in - - ()
Sea Level Pressure  
Sea Level Pressure 29.95 in    
Wind  
Wind Speed 7 mph (NW)    
Max Wind Speed 13 mph    
Max Gust Speed 23 mph    
Visibility 10 miles    
Events      
Averages and records for this station are not official NWS values.
T = Trace of Precipitation, MM = Missing Value Source: NWS Daily Summary

Daily Weather History Graph

Daily Weather History Graph

Search for Another Location

Airport or City:

Astronomy

Oct. 18, 2019 Rise Set
Actual Time 7:21 AM EDT 6:22 PM EDT
Civil Twilight 6:53 AM EDT 6:50 PM EDT
Nautical Twilight 6:22 AM EDT 7:22 PM EDT
Astronomical Twilight 5:50 AM EDT 7:54 PM EDT
Moon 9:36 PM EDT (10/18) 11:53 AM EDT (10/18)
Length of Visible Light 11h 56m
Length of Day
11h 01m
Waning Gibbous, 79% of the Moon is Illuminated
Oct 18
Waning Gibbous
Oct 21
Last Quarter
Oct 27
New
Nov 4
First Quarter
Nov 12
Full

Hourly Weather History & Observations

Time (EDT) Temp. Windchill Dew Point Humidity Pressure Visibility Wind Dir Wind Speed Gust Speed Precip Events Conditions
12:53 AM 50.0 °F - 37.0 °F 61% 29.80 in 10.0 mi WNW 5.8 mph - N/A   Overcast
1:53 AM 50.0 °F - 37.0 °F 61% 29.81 in 10.0 mi NW 10.4 mph - N/A   Overcast
2:53 AM 48.0 °F - 37.0 °F 66% 29.82 in 10.0 mi NW 5.8 mph - N/A   Clear
3:53 AM 48.9 °F - 36.0 °F 61% 29.83 in 10.0 mi Variable 5.8 mph - N/A   Mostly Cloudy
4:53 AM 48.9 °F - 37.0 °F 64% 29.85 in 10.0 mi NW 8.1 mph 17.3 mph N/A   Overcast
5:53 AM 48.9 °F - 37.0 °F 64% 29.87 in 10.0 mi NW 9.2 mph 18.4 mph N/A   Overcast
6:53 AM 48.9 °F - 36.0 °F 61% 29.90 in 10.0 mi NW 10.4 mph - N/A   Overcast
7:53 AM 48.9 °F - 35.1 °F 59% 29.92 in 10.0 mi WNW 11.5 mph 19.6 mph N/A   Overcast
8:53 AM 48.9 °F - 36.0 °F 61% 29.95 in 10.0 mi Variable 5.8 mph - N/A   Overcast
9:53 AM 50.0 °F - 37.0 °F 61% 29.96 in 10.0 mi NW 8.1 mph - N/A   Overcast
10:53 AM 53.1 °F - 36.0 °F 52% 29.95 in 10.0 mi NW 12.7 mph 23.0 mph N/A   Scattered Clouds
11:53 AM 55.9 °F - 36.0 °F 47% 29.96 in 10.0 mi NW 11.5 mph 18.4 mph N/A   Clear
12:53 PM 57.9 °F - 36.0 °F 44% 29.96 in 10.0 mi WNW 10.4 mph 21.9 mph N/A   Mostly Cloudy
1:53 PM 57.9 °F - 35.1 °F 42% 29.96 in 10.0 mi WNW 11.5 mph 20.7 mph N/A   Clear
2:53 PM 57.9 °F - 34.0 °F 41% 29.96 in 10.0 mi WNW 9.2 mph 18.4 mph N/A   Partly Cloudy
3:53 PM 59.0 °F - 34.0 °F 39% 29.96 in 10.0 mi WNW 9.2 mph - N/A   Clear
4:53 PM 57.9 °F - 34.0 °F 41% 29.97 in 10.0 mi NW 11.5 mph - N/A   Clear
5:53 PM 55.0 °F - 33.1 °F 43% 29.98 in 10.0 mi NW 6.9 mph - N/A   Clear
6:53 PM 48.9 °F - 37.0 °F 64% 29.99 in 10.0 mi NW 3.5 mph - N/A   Clear
7:53 PM 45.0 °F - 37.0 °F 74% 30.01 in 10.0 mi Calm Calm - N/A   Clear
8:53 PM 42.1 °F - 37.0 °F 82% 30.03 in 10.0 mi Calm Calm - N/A   Clear
9:53 PM 39.0 °F 36.8 °F 37.0 °F 93% 30.07 in 10.0 mi NW 3.5 mph - N/A   Clear
10:53 PM 37.9 °F - 37.0 °F 97% 30.08 in 10.0 mi Calm Calm - N/A   Clear
11:53 PM 36.0 °F 33.3 °F 35.1 °F 97% 30.09 in 10.0 mi South 3.5 mph - N/A   Clear